Location: Gleizolles
(44.4833°N, 6.7667°E)
Time: 11:39:20
(UTC+00:00)

Envisat - Pass Details

Date: 12 December 2021
Orbit: 764 x 766 km, 98.2° (Epoch: 28 January)

Event Time Altitude Azimuth Distance (km) Brightness Sun altitude
Rises 05:33:32 0° 4° (N) 3,244 6.1 -14.8°
Reaches altitude 10° 05:36:04 10° 354° (N) 2,313 5.2 -14.3°
Maximum altitude 05:40:28 30° 294° (WNW) 1,345 3.7 -13.6°
Drops below altitude 10° 05:44:50 10° 234° (SW) 2,298 5.1 -12.9°
Sets 05:47:21 0° 224° (SW) 3,220 6.0 -12.5°
